Regional Weather Roundup
Issued by NWS

Home | Current Version | Previous Version | Graphics & Text | Print | Product List | Glossary On
Versions: 1 2 3 4 5 6 7 8 9 10 11 12 13 14 15 16 17 18 19 20 21 22 23 24 25 26 27 28
000
ASUS45 KBOU 310707
RWRCO

WEATHER ROUNDUP FOR COLORADO
NATIONAL WEATHER SERVICE DENVER/BOULDER CO
100 AM MDT FRI OCT 31 2014

NOTE: "FAIR" INDICATES FEW OR NO CLOUDS BELOW 12000 FEET WITH NO
SIGNIFICANT WEATHER AND/OR OBSTRUCTIONS TO VISIBILITY.

COZ001>005-013-030-031-310800-
...NORTHWEST COLORADO...

CITY           SKY/WX    TMP DP  RH WIND       PRES   REMARKS
CRAIG          PTCLDY    28  24  85 CALM      30.29F
HAYDEN         PTCLDY    39  27  60 E16       30.31S
MEEKER         CLEAR     33  27  78 NE5       30.29F WCI  29
MOUNT WERNER   NOT AVBL
STEAMBOAT SPGS PTCLDY    35  27  73 CALM      30.33F
WALDEN         CLEAR     28  23  80 SE6       30.39S WCI  22
$$

COZ006>008-011-310800-
...WEST CENTRAL VALLEYS...

CITY           SKY/WX    TMP DP  RH WIND       PRES   REMARKS
GRAND JUNCTION PTCLDY    46  26  45 E12       30.20F
MONTROSE       PTCLDY    38  25  59 S7        30.29S
EAGLE          CLEAR     32  25  74 CALM      30.38F
RIFLE          CLEAR     37  25  61 SE6       30.26F
DELTA          PTCLDY    46  26  45 CALM      30.26S
NUCLA          PTCLDY    43  23  45 SE9       30.31S
$$

COZ017>023-064>068-310800-
...SOUTHWEST COLORADO...

CITY           SKY/WX    TMP DP  RH WIND       PRES   REMARKS
DURANGO        CLEAR     38  26  62 N5        30.35F
CORTEZ         CLEAR     31  22  69 CALM      30.28F
PAGOSA SPRINGS CLEAR     35  22  57 N3        30.42S
TELLURIDE      PTCLDY    45  12  26 SE6       30.43S
WOLF CREEK PAS CLEAR     34  12  40 SW17      30.59S WCI  23
$$

COZ009-010-012-014-032>034-037-058>063-310800-
...CENTRAL COLORADO...

CITY           SKY/WX    TMP DP  RH WIND       PRES   REMARKS
ASPEN          CLEAR     35  22  58 SW7       30.36F WCI  29
BUENA VISTA    CLEAR     27  19  72 W5        30.48F WCI  22
COPPER MTN     CLEAR     37   9  30 S21       30.56F
BERTHOUD PASS  FAIR      30  27  86 W13       30.57F WCI  20
COTTONWOOD PAS CLEAR     37  19  48 CALM      30.51F
GUNNISON       CLEAR     28  16  59 CALM      30.43S
KREMMLING      PTCLDY    28  23  80 CALM      30.41F
LEADVILLE      CLEAR     27  15  61 E5        30.50F WCI  22
MONARCH PASS   CLEAR     36  12  38 SW12      30.68F
SALIDA         CLEAR     34  23  62 CALM      30.54S
SUNLIGHT       CLEAR     39  21  48 CALM      30.50F
WILKERSON PASS NOT AVBL
$$

COZ069>075-310800-
...SAN LUIS VALLEY/SANGRE DE CRISTO MOUNTAINS...

CITY           SKY/WX    TMP DP  RH WIND       PRES   REMARKS
ALAMOSA        PTCLDY    33  17  51 SE7       30.39S WCI  27
LA VETA PASS   PTCLDY    30  19  64 N5        30.52S WCI  25
SAGUACHE       CLEAR     36  16  44 N12       30.42S
$$

COZ035-036-038>040-310800-
...NORTHERN COLORADO FRONT RANGE...

CITY           SKY/WX    TMP DP  RH WIND       PRES   REMARKS
DENVER INTL AP CLEAR     35  26  69 SE12      30.39S WCI  27
DMNS CITY PARK   N/A     41  27  57 E2        30.39S
AURORA         CLEAR     40  26  55 S10       30.40S
FRONT RANGE AP CLEAR     37  30  75 S14       30.40F
ERIE MUNI ARPT CLEAR     33  29  85 CALM      30.39F
BOULDER MUN AP CLEAR     41  32  70 CALM      30.39F
CENTENNIAL     CLEAR     43  25  49 S12       30.40S
BROOMFIELD     CLEAR     45  28  53 N9        30.39F
FORT COLLINS   CLEAR     39  25  56 E9        30.41F
LONGMONT       CLEAR     38  29  70 CALM      30.41F
$$

COZ041-046-047-076>085-087-088-310800-
...PIKES PEAK/PALMER DIVIDE AND SOUTHERN FOOTHILLS...

CITY           SKY/WX    TMP DP  RH WIND       PRES   REMARKS
COLO. SPRINGS  CLEAR     42  24  49 SE6       30.45F
A. F. ACADEMY  PTCLDY    38  23  53 SE3       30.44F
ELLICOTT       CLEAR     38  24  57 S5        30.43F
FALCON         CLEAR     36  24  61 SW5       30.46S
FORT CARSON    PTCLDY    43  24  47 SW6       30.43F
LIMON          CLEAR     32  24  72 SE3       30.44S
MONUMENT HILL  CLEAR     34  23  64 S13       30.43S WCI  25
TRINIDAD       CLEAR     37  23  56 W6        30.43S
$$

COZ042>045-048>051-090-091-310800-
...NORTHEAST COLORADO...

CITY           SKY/WX    TMP DP  RH WIND       PRES   REMARKS
GREELEY ARPT   CLEAR     37  23  56 NE7       30.42F
AKRON          CLEAR     35  28  75 E9        30.43R WCI  28
BURLINGTON     CLEAR     38  29  70 E8        30.44R
WRAY           CLEAR     33  29  82 NE8       30.45S WCI  27
STERLING       NOT AVBL
HOLYOKE        CLEAR     30  27  86 CALM      30.47R
FORT MORGAN    CLEAR     34  28  77 E8        30.43S WCI  27
$$

COZ086-089-092>099-310800-
...SOUTHEAST COLORADO...

CITY           SKY/WX    TMP DP  RH WIND       PRES   REMARKS
PUEBLO         CLEAR     38  23  55 CALM      30.42S
LA JUNTA       CLEAR     38  25  59 N5        30.41S
LAMAR          CLEAR     36  26  67 CALM      30.41R
SPRINGFIELD      N/A     35  25  66 N3        30.42R
$$



USA.gov is the U.S. government's official web portal to all federal, state and local government web resources and services.